map of CJA home
CJA - Airport
Location
City:  Cajamarca, Cajamarca, Perú
Name:Major General FAP Armando Revoredo Iglesias
ICAO:SPJR
IATA:CJA

Details
Type:Airport (Aerodrome, Airfield)
Use:Public/Civil
Latitude:7°08'21"S (-7.139146)
Longitude:78°29'22"W (-78.489582)
Elevation:8848 ft (2697 m)
Variation:1.98°W (WMM2015 magnetic declination)
-0.16° annual change
Runways:1
Longest:8202 × 148 ft (2500 × 45 m), paved

Time
Time Zone:UTC-5
Local Time:

Weather
METAR:SPJR 171330Z 04003KT CAVOK 13/07 Q1028
TAF:SPJR 171110Z 1712/1812 13005KT 9999 SCT030 BKN045 TX25/1719Z TN05/1810Z
TEMPO 1712/1715 VRB02KT CAVOK
TEMPO 1717/1721 31007KT SCT025 BKN043

Related Locations
Nearby:
Farthest:PAN: 12426 mi / 19997 km
Pattani, 94, TH

Find:

   beyond  
but within

Other Information
Maps:
NOTAMs:
Links:
Sources:

  
flag of Perú
flag of Cajamarca
  

Sectional Chart

Flight Planning
at skyvector.com

Satellite Image

Google Maps Satellite view

 

Copyright © 2004-2017 Karl L. Swartz. All rights reserved.
The Great Circle Mapper name and logo are trademarks of the Great Circle Mapper.
All other trademarks mentioned herein belong to their respective owners.
Please see credits for attibutions and further copyright information.

  Follow gcmap on Facebook Follow gcmap on Twitter Follow gcmap on Google+ GCmap on LinkedIn

hCard Microformat

Geo Microformat